Location: Bushey
(51.6333°N, 0.3667°W)
Time: 19:01:40
(UTC+00:00)

Cosmos 1898 Rocket - Pass Details

Date: 03 March 2021
Orbit: 753 x 784 km, 74.0° (Epoch: 17 April)

Event Time Altitude Azimuth Distance (km) Brightness Sun altitude
Rises 19:50:22 0° 338° (NNW) 3,227 7.3 -20.0°
Reaches altitude 10° 19:52:59 10° 348° (NNW) 2,302 6.3 -20.4°
Maximum altitude 19:57:40 32° 52° (NE) 1,284 4.3 -21.1°
Enters shadow 19:57:52 32° 57° (ENE) 1,287 4.3 -21.1°
